Debrecen, Hungary

12:29 AM CET on January 20, 2018 (GMT +0100)
Debrecen

Weather History for LHDC - October, 2013

Change the Weather History Date:

Monday, October 21, 2013

  Actual Average Record
Temperature  
Mean Temperature 58 °F -  
Max Temperature 65 °F 52 °F - ()
Min Temperature 52 °F 36 °F - ()
Degree Days  
Heating Degree Days 6    
Growing Degree Days 8 (Base 50)    
Moisture  
Dew Point 50 °F    
Average Humidity 74    
Maximum Humidity 94    
Minimum Humidity 50    
Precipitation  
Precipitation 0.00 in 0.05 in - ()
Sea Level Pressure  
Sea Level Pressure 30.14 in    
Wind  
Wind Speed 8 mph ()    
Max Wind Speed 13 mph    
Max Gust Speed -    
Visibility 8.3 miles    
Events      
T = Trace of Precipitation, MM = Missing Value Source: Averaged Metar Reports

Daily Weather History Graph

Daily Weather History Graph

Search for Another Location

Airport or City:

Trip Planner

Search our weather history database for the weather conditions in past years. The results will help you decide how hot, cold, wet, or windy it might be!

Date:

Astronomy

Oct. 21, 2013 Rise Set
Actual Time 7:00 AM CEST 5:34 PM CEST
Civil Twilight 6:29 AM CEST 6:06 PM CEST
Nautical Twilight 5:53 AM CEST 6:41 PM CEST
Astronomical Twilight 5:18 AM CEST 7:17 PM CEST
Moon 7:03 PM CEST (10/21) 9:27 AM CEST (10/21)
Length of Visible Light 11h 36m
Length of Day
10h 33m
Waning Gibbous, 94% of the Moon is Illuminated
Oct 21
Waning Gibbous
Oct 27
Last Quarter
Nov 3
New
Nov 10
First Quarter
Nov 17
Full

Hourly Weather History & Observations

Time (CEST) Temp. Dew Point Humidity Pressure Visibility Wind Dir Wind Speed Gust Speed Precip Events Conditions
2:00 AM 58 °F 44 °F 50% 30.15 in - South 13.4 mph - -  
4:45 AM 55.4 °F 44.6 °F 67% 30.12 in - SSW 9.2 mph - N/A   Clear
5:13 AM 53.6 °F 44.6 °F 72% 30.12 in - South 9.2 mph - N/A   Unknown
5:15 AM 53.6 °F 44.6 °F 72% 30.12 in - South 8.1 mph - N/A   Clear
5:45 AM 53.6 °F 44.6 °F 72% 30.12 in - SSW 8.1 mph - N/A   Clear
6:15 AM 53.6 °F 44.6 °F 72% 30.12 in - South 6.9 mph - N/A   Clear
6:45 AM 53.6 °F 44.6 °F 72% 30.12 in - South 4.6 mph - N/A   Clear
7:00 AM - - N/A% - - South 4.6 mph - N/A   Clear
7:15 AM 53.6 °F 44.6 °F 72% 30.12 in - South 6.9 mph - N/A   Clear
7:45 AM 53.6 °F 46.4 °F 77% 30.12 in - South 8.1 mph - N/A   Clear
8:00 AM 53 °F 46 °F 69% 30.12 in 12 mi South 8.9 mph - -   Partly Cloudy
8:15 AM 53.6 °F 44.6 °F 72% 30.12 in - South 6.9 mph - N/A   Clear
8:45 AM 53.6 °F 46.4 °F 77% 30.12 in - South 6.9 mph - N/A   Clear
9:15 AM 53.6 °F 48.2 °F 82% 30.12 in 6.2 mi SSW 6.9 mph - N/A   Mostly Cloudy
9:45 AM 55.4 °F 48.2 °F 77% 30.15 in 6.2 mi SSW 9.2 mph - N/A   Mostly Cloudy
10:00 AM - - N/A% - - SW 11.5 mph - N/A   Dust Whirls
10:15 AM 57.2 °F 50.0 °F 77% 30.15 in 6.2 mi SSW 10.4 mph - N/A   Mostly Cloudy
10:45 AM 59.0 °F 50.0 °F 72% 30.12 in - SW 9.2 mph - N/A   Clear
11:15 AM 60.8 °F 51.8 °F 72% 30.15 in - SSW 10.4 mph - N/A   Clear
11:45 AM 60.8 °F 51.8 °F 72% 30.15 in - SSW 9.2 mph - N/A   Clear
12:15 PM 60.8 °F 53.6 °F 77% 30.15 in 6.2 mi SSW 10.4 mph - N/A   Mostly Cloudy
12:45 PM 62.6 °F 53.6 °F 72% 30.15 in 6.2 mi SW 8.1 mph - N/A   Mostly Cloudy
1:00 PM - - N/A% - - SW 10.4 mph - N/A   Dust Whirls
1:15 PM 62.6 °F 53.6 °F 72% 30.15 in 6.2 mi SSW 8.1 mph - N/A   Mostly Cloudy
1:45 PM 62.6 °F 53.6 °F 72% 30.15 in 6.2 mi SW 8.1 mph - N/A   Mostly Cloudy
2:00 PM 63 °F 53 °F 62% 30.14 in 16 mi SW 6.7 mph - -   Partly Cloudy
2:15 PM 64.4 °F 53.6 °F 68% 30.15 in - SW 9.2 mph - N/A   Clear
2:45 PM 64.4 °F 53.6 °F 68% 30.12 in - SSW 9.2 mph - N/A   Clear
3:15 PM 64.4 °F 53.6 °F 68% 30.12 in - SW 10.4 mph - N/A   Clear
3:45 PM 66.2 °F 55.4 °F 68% 30.12 in - SSW 10.4 mph - N/A   Clear
4:15 PM 64.4 °F 53.6 °F 68% 30.12 in - SSW 10.4 mph - N/A   Clear
4:45 PM 64.4 °F 53.6 °F 68% 30.12 in - SSW 9.2 mph - N/A   Clear
5:15 PM 62.6 °F 53.6 °F 72% 30.15 in - SSW 6.9 mph - N/A   Clear
5:45 PM 59.0 °F 51.8 °F 77% 30.15 in - SSW 5.8 mph - N/A   Clear
6:15 PM 57.2 °F 51.8 °F 82% 30.15 in - South 2.3 mph - N/A   Clear
6:45 PM 55.4 °F 51.8 °F 88% 30.15 in - South 4.6 mph - N/A   Clear
7:15 PM 55.4 °F 51.8 °F 88% 30.15 in - South 5.8 mph - N/A   Clear
7:45 PM 53.6 °F 51.8 °F 94% 30.15 in - SSE 3.5 mph - N/A   Clear
8:00 PM 54 °F 51 °F 86% 30.17 in 12 mi SSE 2.2 mph - -   Partly Cloudy
8:15 PM 53.6 °F 50.0 °F 88% 30.15 in - SE 4.6 mph - N/A   Clear
8:45 PM 53.6 °F 50.0 °F 88% 30.15 in - SE 3.5 mph - N/A   Clear
9:00 PM - - N/A% - - North - - N/A   Unknown